User: anonymous   Login
Location: Cahas Mountain Overlook
(37.0833°N, 80.1000°W)
Time: 21:17:12
(UTC-04:00)
Language:

SR - Orbit

View from above orbital plane
View from above orbital plane
View from above satellite
View from above satellite

Ground track
Ground track

The orbit data is extracted from the following two-line orbital elements,

1    46U 60007B   22228.94447741  .00000223  00000-0  65679-4 0  9993
2    46  66.6896  70.0573 0216628 261.9956  95.6522 14.49754154253663
Epoch (UTC): 16 August 2022 22:40:02
Eccentricity: 0.0216628
inclination: 66.6896°
perigee height: 572 km
apogee height: 880 km
right ascension of ascending node: 70.0573°
argument of perigee: 261.9956°
revolutions per day: 14.49754154
mean anomaly at epoch: 95.6522°
orbit number at epoch: 25366

The dashed part of the orbit path shows where the satellite is in the earth's shadow,  

DLR